| time (UTC) | temp F | wind direction | speed MPH | gust MPH | rain 1hr in | rain 24hr in | rain mn in | humidity % | barometer mb |
| 20260905123013 | 63 | 355 | 1.0 | 6.0 | 0.01 | 0.01 | 0.01 | 94 | 1008.0 |
| 20260905121509 | 62 | 58 | 0.0 | 4.0 | 0.01 | 0.01 | 0.01 | 94 | 1007.8 |
| 20260905120006 | 61 | 131 | 0.0 | 3.0 | 0.00 | 0.00 | 0.00 | 95 | 1007.8 |
| 20260905114626 | 60 | 163 | 0.0 | 2.0 | 0.00 | 0.00 | 0.00 | 94 | 1007.8 |
| 20260905113055 | 59 | 91 | 0.0 | 0.0 | 0.00 | 0.00 | 0.00 | 94 | 1007.7 |
| 20260905111553 | 58 | 91 | 0.0 | 0.0 | 0.00 | 0.00 | 0.00 | 93 | 1007.5 |
| 20260905110048 | 58 | 91 | 0.0 | 0.0 | 0.00 | 0.00 | 0.00 | 93 | 1007.2 |
| 20260905104547 | 57 | 91 | 0.0 | 0.0 | 0.00 | 0.00 | 0.00 | 93 | 1007.0 |
| 20260905103045 | 57 | 91 | 0.0 | 0.0 | 0.00 | 0.00 | 0.00 | 93 | 1007.0 |
| 20260905101545 | 57 | 91 | 0.0 | 0.0 | 0.00 | 0.00 | 0.00 | 93 | 1007.0 |
| 20260905100101 | 57 | 91 | 0.0 | 0.0 | 0.00 | 0.00 | 0.00 | 93 | 1006.9 |
| 20260905094542 | 57 | 91 | 0.0 | 0.0 | 0.00 | 0.00 | 0.00 | 93 | 1006.9 |
| 20260905093041 | 58 | 91 | 0.0 | 0.0 | 0.00 | 0.00 | 0.00 | 92 | 1007.0 |
| 20260905091552 | 58 | 91 | 0.0 | 0.0 | 0.00 | 0.00 | 0.00 | 92 | 1006.9 |
| 20260905090039 | 58 | 91 | 0.0 | 0.0 | 0.00 | 0.00 | 0.00 | 92 | 1006.9 |
| 20260905084536 | 58 | 91 | 0.0 | 0.0 | 0.00 | 0.00 | 0.00 | 92 | 1006.8 |
| 20260905083036 | 58 | 91 | 0.0 | 0.0 | 0.00 | 0.00 | 0.00 | 92 | 1006.7 |
| 20260905081534 | 59 | 91 | 0.0 | 0.0 | 0.00 | 0.00 | 0.00 | 92 | 1006.8 |
| 20260905080039 | 59 | 91 | 0.0 | 0.0 | 0.00 | 0.00 | 0.00 | 92 | 1006.8 |
| 20260905074543 | 59 | 91 | 0.0 | 0.0 | 0.00 | 0.00 | 0.00 | 92 | 1006.7 |
| 20260905073050 | 59 | 91 | 0.0 | 0.0 | 0.00 | 0.00 | 0.00 | 92 | 1006.7 |
| 20260905071531 | 59 | 91 | 0.0 | 0.0 | 0.00 | 0.00 | 0.00 | 92 | 1006.8 |
| 20260905070126 | 60 | 91 | 0.0 | 0.0 | 0.00 | 0.00 | 0.00 | 92 | 1006.9 |
| 20260905064525 | 60 | 91 | 0.0 | 0.0 | 0.00 | 0.00 | 0.00 | 92 | 1007.2 |
| 20260905063025 | 60 | 91 | 0.0 | 0.0 | 0.00 | 0.00 | 0.00 | 91 | 1007.2 |
| 20260905061522 | 60 | 91 | 0.0 | 0.0 | 0.00 | 0.00 | 0.00 | 91 | 1007.3 |
| 20260905060020 | 61 | 91 | 0.0 | 0.0 | 0.00 | 0.00 | 0.00 | 91 | 1007.3 |
| 20260905054518 | 61 | 91 | 0.0 | 0.0 | 0.00 | 0.00 | 0.00 | 91 | 1007.3 |
| 20260905053017 | 61 | 91 | 0.0 | 0.0 | 0.00 | 0.00 | 0.00 | 91 | 1007.4 |
| 20260905051516 | 62 | 91 | 0.0 | 0.0 | 0.00 | 0.00 | 0.00 | 91 | 1007.3 |
| 20260905050017 | 62 | 91 | 0.0 | 0.0 | 0.00 | 0.00 | 0.00 | 90 | 1007.1 |
| 20260905044512 | 62 | 91 | 0.0 | 0.0 | 0.00 | 0.00 | 0.00 | 90 | 1007.1 |
| 20260905043011 | 62 | 91 | 0.0 | 0.0 | 0.00 | 0.00 | 0.00 | 90 | 1007.1 |
| 20260905041510 | 63 | 91 | 0.0 | 0.0 | 0.00 | 0.00 | 0.00 | 90 | 1007.1 |
| 20260905040009 | 63 | 91 | 0.0 | 0.0 | 0.00 | 0.00 | 0.00 | 89 | 1007.2 |
| 20260905034506 | 63 | 91 | 0.0 | 0.0 | 0.00 | 0.00 | 0.00 | 89 | 1007.3 |
| 20260905033017 | 64 | 91 | 0.0 | 0.0 | 0.00 | 0.00 | 0.00 | 89 | 1007.2 |
| 20260905031506 | 64 | 91 | 0.0 | 0.0 | 0.00 | 0.00 | 0.00 | 89 | 1007.3 |
| 20260905030007 | 64 | 91 | 0.0 | 0.0 | 0.00 | 0.00 | 0.00 | 88 | 1007.2 |
| 20260905024505 | 65 | 91 | 0.0 | 0.0 | 0.00 | 0.00 | 0.00 | 87 | 1007.2 |
| 20260905023023 | 65 | 91 | 0.0 | 0.0 | 0.00 | 0.00 | 0.00 | 87 | 1007.3 |
| 20260905021506 | 66 | 91 | 0.0 | 0.0 | 0.00 | 0.00 | 0.00 | 87 | 1007.3 |
| 20260905020003 | 66 | 91 | 0.0 | 0.0 | 0.00 | 0.00 | 0.00 | 87 | 1007.5 |
| 20260905014503 | 67 | 91 | 0.0 | 0.0 | 0.00 | 0.00 | 0.00 | 86 | 1007.7 |
| 20260905013002 | 67 | 91 | 0.0 | 0.0 | 0.00 | 0.00 | 0.00 | 86 | 1007.6 |
| 20260905011503 | 68 | 91 | 0.0 | 0.0 | 0.00 | 0.00 | 0.00 | 85 | 1007.8 |
| 20260905010001 | 69 | 91 | 0.0 | 0.0 | 0.00 | 0.00 | 0.00 | 85 | 1007.9 |
| 20260905004502 | 69 | 91 | 0.0 | 0.0 | 0.00 | 0.00 | 0.00 | 84 | 1007.7 |
| 20260905003100 | 70 | 91 | 0.0 | 0.0 | 0.00 | 0.00 | 0.00 | 83 | 1007.6 |
| 20260905003001 | 70 | 91 | 0.0 | 0.0 | 0.00 | 0.00 | 0.00 | 83 | 1007.6 |
| 20260905001609 | 70 | 91 | 0.0 | 0.0 | 0.00 | 0.00 | 0.00 | 83 | 1007.5 |
| 20260905000116 | 71 | 91 | 0.0 | 0.0 | 0.00 | 0.00 | 0.00 | 81 | 1007.4 |
| 20260904234559 | 72 | 91 | 0.0 | 1.0 | 0.00 | 0.00 | 0.00 | 80 | 1007.2 |
| 20260904233058 | 73 | 91 | 0.0 | 1.0 | 0.00 | 0.00 | 0.00 | 78 | 1007.1 |
| 20260904231601 | 74 | 91 | 0.0 | 1.0 | 0.00 | 0.00 | 0.00 | 75 | 1007.0 |
| 20260904230057 | 75 | 49 | 0.0 | 2.0 | 0.00 | 0.00 | 0.00 | 74 | 1007.0 |
| 20260904224601 | 77 | 49 | 0.0 | 0.0 | 0.00 | 0.00 | 0.00 | 71 | 1006.9 |
| 20260904223055 | 78 | 49 | 0.0 | 1.0 | 0.00 | 0.00 | 0.00 | 69 | 1006.9 |
| 20260904221551 | 79 | 49 | 0.0 | 3.0 | 0.00 | 0.00 | 0.00 | 67 | 1006.7 |
| 20260904220109 | 80 | 49 | 0.0 | 2.0 | 0.00 | 0.00 | 0.00 | 63 | 1006.7 |
| 20260904214549 | 80 | 49 | 0.0 | 3.0 | 0.00 | 0.00 | 0.00 | 61 | 1006.5 |
| 20260904213049 | 80 | 11 | 0.0 | 1.0 | 0.00 | 0.00 | 0.00 | 62 | 1006.5 |
| 20260904211555 | 80 | 297 | 0.0 | 0.0 | 0.00 | 0.00 | 0.00 | 60 | 1006.4 |
| 20260904210100 | 80 | 298 | 0.0 | 1.0 | 0.00 | 0.00 | 0.00 | 61 | 1006.5 |
| 20260904204550 | 81 | 299 | 0.0 | 2.0 | 0.00 | 0.00 | 0.00 | 58 | 1006.4 |
| 20260904203047 | 82 | 42 | 0.0 | 4.0 | 0.00 | 0.00 | 0.00 | 55 | 1006.5 |
| 20260904201546 | 83 | 219 | 0.0 | 3.0 | 0.00 | 0.00 | 0.00 | 54 | 1006.6 |
| 20260904200046 | 82 | 318 | 0.0 | 3.0 | 0.00 | 0.00 | 0.00 | 59 | 1006.4 |
| 20260904194553 | 81 | 188 | 0.0 | 3.0 | 0.00 | 0.00 | 0.00 | 60 | 1006.6 |
| 20260904193044 | 82 | 43 | 1.0 | 5.0 | 0.00 | 0.00 | 0.00 | 55 | 1006.5 |
| 20260904191548 | 84 | 51 | 3.0 | 10.0 | 0.00 | 0.00 | 0.00 | 53 | 1006.5 |
| 20260904190042 | 82 | 76 | 0.0 | 2.0 | 0.00 | 0.00 | 0.00 | 59 | 1006.7 |
| 20260904184547 | 83 | 111 | 1.0 | 8.0 | 0.00 | 0.00 | 0.00 | 57 | 1006.6 |
| 20260904183042 | 82 | 32 | 1.0 | 6.0 | 0.00 | 0.00 | 0.00 | 55 | 1006.6 |
| 20260904181549 | 83 | 342 | 1.0 | 8.0 | 0.00 | 0.00 | 0.00 | 54 | 1006.7 |
| 20260904180038 | 83 | 32 | 0.0 | 3.0 | 0.00 | 0.00 | 0.00 | 56 | 1006.9 |
| 20260904174559 | 83 | 62 | 0.0 | 5.0 | 0.00 | 0.00 | 0.00 | 58 | 1006.8 |
| 20260904173037 | 83 | 286 | 3.0 | 9.0 | 0.00 | 0.00 | 0.00 | 57 | 1006.9 |
| 20260904171535 | 82 | 248 | 0.0 | 5.0 | 0.00 | 0.00 | 0.00 | 62 | 1007.1 |
| 20260904170031 | 82 | 327 | 0.0 | 3.0 | 0.00 | 0.00 | 0.00 | 65 | 1007.2 |
| 20260904164528 | 81 | 53 | 3.0 | 9.0 | 0.00 | 0.00 | 0.00 | 64 | 1007.3 |
| 20260904163027 | 80 | 249 | 0.0 | 6.0 | 0.00 | 0.00 | 0.00 | 65 | 1007.4 |
| 20260904161525 | 81 | 55 | 1.0 | 6.0 | 0.00 | 0.00 | 0.00 | 69 | 1007.6 |
| 20260904160024 | 80 | 279 | 1.0 | 5.0 | 0.00 | 0.00 | 0.00 | 65 | 1007.7 |
| 20260904154519 | 79 | 30 | 1.0 | 7.0 | 0.00 | 0.00 | 0.00 | 69 | 1007.8 |
| 20260904153023 | 78 | 266 | 1.0 | 4.0 | 0.00 | 0.00 | 0.00 | 71 | 1007.9 |
| 20260904151513 | 78 | 61 | 0.0 | 5.0 | 0.00 | 0.00 | 0.00 | 75 | 1007.9 |
| 20260904150011 | 77 | 65 | 2.0 | 5.0 | 0.00 | 0.00 | 0.00 | 73 | 1008.1 |
| 20260904144505 | 76 | 31 | 1.0 | 3.0 | 0.00 | 0.00 | 0.00 | 81 | 1008.1 |
| 20260904143001 | 74 | 49 | 0.0 | 6.0 | 0.00 | 0.00 | 0.00 | 87 | 1008.2 |
| 20260904141558 | 70 | 281 | 0.0 | 4.0 | 0.00 | 0.00 | 0.00 | 94 | 1008.3 |
| 20260904140054 | 69 | 27 | 0.0 | 1.0 | 0.00 | 0.00 | 0.00 | 95 | 1008.4 |
| 20260904134550 | 68 | 349 | 0.0 | 2.0 | 0.00 | 0.00 | 0.00 | 95 | 1008.6 |
| 20260904133055 | 68 | 66 | 0.0 | 3.0 | 0.00 | 0.00 | 0.00 | 95 | 1008.6 |
| 20260904131545 | 67 | 52 | 1.0 | 2.0 | 0.00 | 0.00 | 0.00 | 95 | 1008.6 |
| 20260904130043 | 67 | 58 | 0.0 | 2.0 | 0.00 | 0.00 | 0.00 | 95 | 1008.7 |
| 20260904124545 | 67 | 55 | 0.0 | 2.0 | 0.00 | 0.03 | 0.00 | 95 | 1008.7 |